Flag for Canada Weather past 2 weeks in Kuujjuaq, Quebec, Canada

Now
23 °F

Overcast.


Feels Like: 17 °F
Forecast: 18 / 27 °F
Wind: 5 mph from East

Location: Kuujjuaq

Current Time: Dec 24, 2014 at 9:18:39 PM

Latest Report: Dec 24, 2014 at 8:00 PM


Visibility: 15 mi

Pressure: 30.07 "Hg

Humidity: 74%

Dew point: 16 °F

Location of KuujjuaqLocation

Historic Weather in Kuujjuaq — Graph

°F

Kuujjuaq temperature yesterday

Maximum temperature yesterday: 19 °F (at 1:00 PM)
Minimum temperature yesterday: 9 °F (at 12:00 AM)
Average temperature yesterday: 15 °F

Past Weeks' High & Low Weather Summary

 TemperatureHumidityPressure
High23 °F (Dec 13, 7:00 PM)93% (Dec 13, 12:00 PM)30.83 "Hg (Dec 13, 12:00 PM)
Low-22 °F (Dec 10, 8:00 AM)51% (Dec 11, 1:00 PM)29.52 "Hg (Dec 14, 12:00 PM)
Average5 °F76%30.15 "Hg
* Reported Dec 9 8:00 PM — Dec 24 8:00 PM, Kuujjuaq, Weather by CustomWeather, © 2014

Note: Actual official high and low records may vary slightly from our data, if they occured in-between our weather recording intervals... More about our weather records

Advertising

Kuujjuaq weather history for previous 24 hours

 ConditionsComfort  
Time TempWeatherWind HumidityBarometerVisibility
8:00 PM
Dec 24
23 °FOvercast.5 mph74%30.07 "Hg15 mi
7:00 PM23 °FOvercast.7 mph80%30.08 "Hg15 mi
6:00 PM23 °FOvercast.5 mph80%30.09 "Hg15 mi
5:00 PM23 °FOvercast.7 mph80%30.10 "Hg15 mi
4:00 PM23 °FLight snow. Passing clouds.5 mph86%30.11 "Hg15 mi
3:00 PM23 °FLight snow. Overcast.3 mph86%30.12 "Hg15 mi
2:00 PM23 °FLight snow. Partly sunny.2 mph86%30.13 "Hg15 mi
1:00 PM23 °FLight snow. Overcast.No wind93%30.14 "Hg15 mi
12:00 PM23 °FLight snow. Overcast.5 mph86%30.14 "Hg15 mi
11:00 AM23 °FMostly cloudy.6 mph86%30.14 "Hg15 mi
10:00 AM23 °FLight snow. Overcast.2 mph86%30.14 "Hg15 mi
9:00 AM21 °FLight snow. Overcast.5 mph93%30.15 "Hg12 mi
8:00 AM21 °FLight snow. Overcast.3 mph93%30.14 "Hg15 mi
7:00 AM21 °FLight snow. Overcast.5 mph93%30.15 "Hg12 mi
6:00 AM21 °FLight snow. Overcast.7 mph93%30.15 "Hg15 mi
5:00 AM21 °FLight snow. Overcast.3 mph86%30.15 "Hg15 mi
4:00 AM21 °FLight snow. Mostly cloudy.2 mph86%30.15 "Hg10 mi
3:00 AM21 °FLight snow. Overcast.2 mph86%30.15 "Hg10 mi
2:00 AM21 °FLight snow. Overcast.5 mph86%30.15 "Hg15 mi
1:00 AM21 °FLight snow. Mostly cloudy.5 mph86%30.15 "Hg15 mi
12:00 AM19 °FLight snow. Mostly cloudy.5 mph86%30.14 "Hg15 mi
11:00 PM
Dec 23
19 °FLight snow. Mostly cloudy.8 mph86%30.14 "Hg15 mi
10:00 PM19 °FLight snow. Overcast.8 mph79%30.14 "Hg15 mi
9:00 PM19 °FOvercast.5 mph79%30.15 "Hg15 mi
Weather by CustomWeather, © 2014

See weather overviewHow to use our weather pages